sat.trackr.live / text

‹ back to catalog

STARLINK-3156

NORAD 49458 · 2021-104BC

PAYLOAD ACTIVE UNKNOWN

§ Identity

Operator
Country
US
Launch date
2021-11-13
Launch site
AFETR
Launch vehicle
Mass (kg)
RCS (m²)

Purposes: comms

External: N2YO · Heavens-Above · Gunter

§ Orbital elements

Epoch: 2026-09-20T03:16:23.899008Z

Period
93.90 min
Inclination
53.1599°
Eccentricity
0.0001370
Mean motion
15.33529036 rev/d
Perigee alt
464.4 km
Apogee alt
466.2 km
Semi-major
6,843.4 km
B*
-2.3422e-5
RAAN
53.5346°
Arg perigee
92.9099°
Mean anomaly
267.2060°
Rev number
26,830

§ Raw data

STARLINK-31561 49458U 21104BC  26263.13638772 -.00001142  00000+0 -23422-4 0  99902 49458  53.1599  53.5346 0001370  92.9099 267.2060 15.33529036268308

JSON: /api/v1/satellites/49458 · /tle

For live sub-satellite position, see the globe view (requires WebGL).

§ Visibility from observer

Set your observer location to see the next 7 days of passes ≥ 10°. The values pass through the URL so the page stays shareable.

No JS? Fill the form by hand. The geolocation button needs JavaScript.